Location: Sternwarte ZA, Rosenfeld-Brittheim
(48.2889°N, 8.6789°E)
Time: 07:55:36
(UTC+02:00)

ISS - Pass Details

Date: 20 May 2018
Orbit: 402 x 407 km, 51.6° (Epoch: 23 May)

Event Time Altitude Azimuth Distance (km) Brightness Sun altitude
Rises 04:48:21 0° 291° (WNW) 2,321 -0.3 -7.7°
Reaches altitude 10° 04:50:30 10° 284° (WNW) 1,458 -1.3 -7.4°
Maximum altitude 04:53:35 40° 213° (SSW) 606 -3.4 -7.0°
Drops below altitude 10° 04:56:40 10° 141° (SE) 1,452 -1.0 -6.6°
Sets 04:58:48 0° 134° (SE) 2,308 0.1 -6.4°
